User: anonymous   Login
Location: Oronoko Observatory
(41.9167°N, 86.3833°W)
Time: 14:12:18
(UTC-05:00)
Language:

PAYLOAD A - Orbit

View from above orbital plane
View from above orbital plane
View from above satellite
View from above satellite

Ground track
Ground track

The orbit data is extracted from the following two-line orbital elements,

1 27840U 03031A   17049.94947757 -.00000012 +00000-0 +93562-5 0  9995
2 27840 098.2019 052.5721 0099402 115.1837 245.9699 14.38874620716218
Epoch (UTC): 18 February 2017 22:47:14
Eccentricity: 0.0099402
inclination: 98.2019°
perigee height: 691 km
apogee height: 833 km
right ascension of ascending node: 52.5721°
argument of perigee: 115.1837°
revolutions per day: 14.38874620
mean anomaly at epoch: 245.9699°
orbit number at epoch: 71621

The dashed part of the orbit path shows where the satellite is in the earth's shadow,  

DLR